Regional Weather Roundup
Issued by NWS

Home | Current Version | Previous Version | Text Only | Print | Product List | Glossary On
Versions: 1 2 3 4 5 6 7 8 9 10 11 12 13 14 15 16 17 18 19 20 21 22 23 24 25 26 27 28 29 30 31 32 33 34 35 36 37 38 39 40 41 42 43 44 45 46 47 48 49 50
000
ASUS43 KDTX 290410
RWRMI
MICHIGAN HOURLY REGIONAL WEATHER ROUNDUP
NATIONAL WEATHER SERVICE DETROIT/PONTIAC MI
1200 AM EDT FRI AUG 29 2014

NOTE: "FAIR" INDICATES FEW OR NO CLOUDS BELOW 12,000 FEET WITH NO
SIGNIFICANT WEATHER AND/OR OBSTRUCTION TO VISIBILITY.

MIZ047>049-052>055-059>063-066>070-074>076-081>083-290500-
SOUTHEAST LOWER MICHIGAN

CITY           SKY/WX    TMP DP  RH WIND       PRES   REMARKS
ADRIAN         CLEAR     61  56  83 SE5       30.15R
ALMA           CLOUDY    59  55  84 CALM      30.13S
ANN ARBOR      PTCLDY    57  53  86 CALM      30.14R
BAD AXE        PTCLDY    49  49  99 CALM      30.16R
DETROIT CITY   PTCLDY    64  52  64 SE3       30.16R
DETROIT        MOCLDY    62  54  74 E5        30.15R
FLINT          MOCLDY    61  53  75 E5        30.15S
GROSSE ILE     PTCLDY    63  55  77 E6        30.14R
HILLSDALE      PTCLDY    62  59  88 SE5       30.14R
HOWELL         MOCLDY    58  55  89 CALM      30.15R

CITY           SKY/WX    TMP DP  RH WIND       PRES   REMARKS
JACKSON        MOCLDY    62  57  83 SE7       30.14R
LAMBERTVILLE   CLEAR     59  55  88 SE3       30.15S
LANSING        CLOUDY    60  53  77 E6        30.14R
LAPEER         NOT AVBL
MASON          MOCLDY    58  54  86 CALM      30.14R
MONROE         PTCLDY    55  54  94 CALM      30.13R
MT. CLEMENS    PTCLDY    60  50  68 E9        30.15R
PONTIAC        MOCLDY    61  47  59 E6        30.15R
PORT HOPE        N/A     54  50  86 CALM      30.14S
PORT HURON     PTCLDY    48  46  93 CALM      30.16S
TRI CITIES     CLOUDY    59  51  75 SE8       30.15S
YPSILANTI      PTCLDY    62  55  77 CALM      30.15R
$$
MIZ043>046-050>051-056>058-064>065-071>073-077>080-290500-
SOUTHWEST LOWER MICHIGAN

CITY           SKY/WX    TMP DP  RH WIND       PRES   REMARKS
BATTLE CREEK   MOCLDY    65  52  62 E6        30.12S
BENTON HARBOR  MOCLDY    67  59  75 E9        30.07S
BIG RAPIDS     CLOUDY    61  56  82 CALM      30.11S
COLDWATER      MOCLDY    65  58  80 SE5       30.12R
HOLLAND        PTCLDY    64  54  69 E7        30.10S
GRAND RAPIDS   MOCLDY    62  55  77 E7        30.11F
KALAMAZOO      PTCLDY    64  55  72 E5        30.11F
MARSHALL       MOCLDY    61  53  75 CALM      30.13R
MUSKEGON       MOCLDY    64  53  67 E7        30.08F
$$
MIZ016>042-290500-
NORTHERN LOWER MICHIGAN

CITY           SKY/WX    TMP DP  RH WIND       PRES   REMARKS
ALPENA         MOCLDY    49  46  90 CALM      30.14F
BEAVER ISLAND  MOCLDY    51  51  97 CALM      30.11F
CADILLAC       CLOUDY    58  52  82 CALM      30.11F
CHARLEVOIX     MOCLDY    58  53  81 SE5       30.14S
FRANKFORT      CLOUDY    64  52  65 E5        30.08F
GAYLORD        PTCLDY    54  51  90 SE7       30.14R
GRAYLING       PTCLDY    54  53  96 CALM      30.14S
HARBOR SPRINGS MOCLDY    55  49  79 NE5       30.12S
HOUGHTON LAKE  MOCLDY    54  51  90 E5        30.14S
MANISTEE       CLOUDY    59  54  82 E6        30.09F
OSCODA         PTCLDY    51  49  93 CALM      30.14F
PELLSTON       MOCLDY    49  48  97 CALM      30.13S
TRAVERSE CITY  CLOUDY    59  52  77 CALM      30.09F
$$
MIZ007>008-015-290500-
EASTERN UPPER MICHIGAN

CITY           SKY/WX    TMP DP  RH WIND       PRES   REMARKS
KINROSS        MOCLDY    55  52  88 S5        30.12S
MACKINAC ISLAN CLOUDY    53  49  88 S3        30.12S
NEWBERRY       MOCLDY    48  46  94 W8        30.11S
S. S. MARIE    MOCLDY    54  49  83 CALM      30.12R
$$
MIZ004>006-011>014-085-290500-
CENTRAL UPPER MICHIGAN

CITY           SKY/WX    TMP DP  RH WIND       PRES   REMARKS
MANISTIQUE     PTCLDY    50  49  97 CALM      30.08F
ESCANABA       CLOUDY    63  54  72 SE7       30.08S
MENOMINEE      CLOUDY    63  55  77 SE5       30.06S
SAWYER-GWINN   MOCLDY    55  51  88 S6        30.08S
$$
MIZ001>003-009>011-084-290500-
WESTERN UPPER MICHIGAN

CITY           SKY/WX    TMP DP  RH WIND       PRES   REMARKS
IRON MOUNTAIN  CLOUDY    60  56  86 SE6       30.05F
HOUGHTON       PTCLDY    55  52  89 E8        30.02F
COPPER HARBOR    N/A     59  54  83 SW9       30.01F
$$

ABBREVIATIONS USED IN REMARKS
   TC - TEMPERATURE IN CELSIUS
  WCI - WIND CHILL INDEX
   HX - HEAT INDEX
  VSB - VISIBILITY




USA.gov is the U.S. government's official web portal to all federal, state and local government web resources and services.